Regional Weather Roundup
Issued by NWS Newport/Morehead, NC

Current Version | Previous Version | Text Only | Print | Product List | Glossary Off
Versions: 1 2 3 4 5 6 7 8 9 10 11 12 13 14 15 16 17 18 19 20 21 22 23 24 25 26 27 28 29 30 31 32 33 34 35 36 37 38 39 40 41 42 43 44 45 46 47 48 49 50
229 ASUS42 KMHX 090213 RWRMHX WEATHER ROUNDUP FOR EASTERN NORTH CAROLINA NATIONAL WEATHER SERVICE NEWPORT/MOREHEAD CITY NC 900 PM EST MON FEB 08 2016 NOTE: "FAIR" INDICATES FEW OR NO CLOUDS BELOW 12,000 FEET WITH NO SIGNIFICANT WEATHER AND/OR OBSTRUCTIONS TO VISIBILITY NCZ015>017-031-032-045>047-102-103-090300- NORTH COAST CITY SKY/WX TMP DP RH WIND PRES REMARKS EDENTON CLOUDY 45 39 82 E3 29.69F ELIZABETH CITY CLOUDY 43 37 79 E10 29.70F KITTY HAWK MOCLDY 42 37 80 E6 29.69F HAZE MANTEO PTCLDY 42 38 85 E12 29.70F $$ NCZ045>047-081-094-103-104-090300- CENTRAL COAST CITY SKY/WX TMP DP RH WIND PRES REMARKS FRISCO PTCLDY 42 36 79 E5 29.70F SWANQUARTER N/A 43 N/A N/A E3 29.65F $$ NCZ095-097-098-100-101-090300- SOUTHERN COAST CITY SKY/WX TMP DP RH WIND PRES REMARKS BEAUFORT CLEAR 52 41 66 SW17G25 29.68F CEDAR ISLAND N/A 45 N/A N/A SW1 29.71F JACKSONVILLE CLOUDY 46 37 71 W16G25 29.73R PINEY ISLAND CLEAR N/A N/A N/A SW3 29.67F WILMINGTON LGT RAIN 47 40 76 W10 29.73F $$ NCZ011>013-027>030-043-044-078>080-089-090>093-098-090300- COASTAL PLAIN CITY SKY/WX TMP DP RH WIND PRES REMARKS AHOSKIE LGT RAIN 42 37 83 CALM 29.70F CLINTON CLOUDY 40 40 100 CALM 29.70F ELIZABETHTOWN MOCLDY 43 42 94 S3 29.70S GOLDSBORO PTCLDY 43 43 100 S3 29.67F GREENVILLE LGT RAIN 43 41 93 W9G23 29.75R HAVELOCK MOCLDY 49 37 63 W28G36 29.70R KENANSVILLE CLOUDY 41 40 97 CALM 29.71F KINSTON CLOUDY 43 39 87 CALM 29.71F NEW BERN CLOUDY 47 38 71 W16G24 29.71R RICHLANDS CLOUDY 45 34 65 W12G18 29.73S ROCKY MOUNT LGT RAIN 42 40 92 NE3 29.68F WASHINGTON CLOUDY 47 37 67 W13G24 29.68S WHITEVILLE CLOUDY 44 42 93 S5 29.71F $$ AMZ130-135-150-152-154-156-158-170-250-252-270-ANZ085-086-088-633-658-670-090300- MARINE OBSERVATIONS STATION/POSITION TIME TEMP WIND PRES WAVE SWELL AIR SEA DIR/SP/G HT/PER HT/PER (UTC) (F) (DEG/KT/KT) (MB) (FT/S) (FT/S) CHESAPEAKE LIGHT 0200 43 100/ 14/ 16 1006.6 64 E VA BEACH 0150 46 52 110/ 4/ 8 1006.5 15/14 15/14 DUCK 0100 44 120/ 13/ 14 1005.6 2 E DUCK 0111 44 N/A 10/14 8/14 OREGON INLET 0100 44 45 80/ 6/ 9 1006.2 13E OREGON INLT 0200 47 N/A 18/14 16/14 HATTERAS CG 0100 46 51 70/ 2/ 5 1005.6 DIAMOND BUOY 0150 56 74 310/ 14/ 17 1004.9 11/14 11/14 CAPE LOOKOUT NOT AVBL BEAUFORT LAB 0100 53 47 230/ 5/ 12 1004.3 30 SE NEW RVR IN 0108 59 62 1004.7 30 SE NEW RVR IN 0125 62 N/A 8/ 6 3/14 27 SE WRIGHTSVLE 0108 57 60 260/ 23/ 33 1004.6 5 SE WRIGHTSVLE 0108 54 52 260/ 19/ 25 1005.3 225 S CAPE HAT 0150 64 69 250/ 23/ 27 N/A 12/14 8/14 41 SE CHARLESTON 0150 52 65 310/ 25/ 31 1005.8 9/ 7 3/16 $$

USA.gov is the U.S. government's official web portal to all federal, state and local government web resources and services.